User: anonymous   Login
Location: Unspecified
(0.0000°N, 0.0000°E)
Time: 04:34:54
(UTC+00:00)
Language:

STARLINK-34151 - Orbit

View from above orbital plane
View from above orbital plane
View from above satellite
View from above satellite

Ground track
Ground track

The orbit is defined by the following mean orbital elements,

1 64120U          26145.40657314 +.00000000 +00000-0 +48291-3 0 00001
2 64120  53.1609  30.7365 0001437  87.5322 272.5843 15.30215209    04
Epoch (UTC): 25 May 2026 09:45:27
Eccentricity: 0.0001437
inclination: 53.1609°
perigee height: 474 km
apogee height: 476 km
right ascension of ascending node: 30.7365°
argument of perigee: 87.5322°
revolutions per day: 15.30215209
mean anomaly at epoch: 272.5843°

The dashed part of the orbit path shows where the satellite is in the earth's shadow,  

DLR